When you browse on this site, cookies collect data to enhance your experience and personalize the content and advertising you see.
Visit our Privacy Policy to learn more. By continuing to use the site, you agree to this use of cookies and data.
  • In Sweden
  • List of Countries
  • For 7 days
  • Water Temperature
  • Weather Map
  • Weather Widgets
  • user-avatar
    Login

    Hourly Weather Pervomaysk

    Today, 25 February, Tuesday

    Time Temperature Precipitation Wind Pressure Humidity
    00:00 0°C° 0 mm 3 mps 745 mmHg 84%
    01:00 0°C° 0 mm 3 mps 745 mmHg 85%
    02:00 +1°C° 0 mm 2 mps 745 mmHg 86%
    03:00 +1°C° 0 mm 2 mps 744 mmHg 87%
    04:00 +1°C° 0 mm 2 mps 743 mmHg 87%
    05:00 +1°C° 0 mm 2 mps 743 mmHg 88%
    06:00 0°C° 0 mm 3 mps 743 mmHg 89%
    07:00 0°C° 0 mm 3 mps 742 mmHg 89%
    08:00 -1°C° 0 mm 4 mps 742 mmHg 89%
    09:00 0°C° 0 mm 4 mps 742 mmHg 89%
    10:00 0°C° 0 mm 5 mps 741 mmHg 89%
    11:00 +1°C° 0 mm 5 mps 741 mmHg 89%
    12:00 0°C° 0.1 mm 5 mps 740 mmHg 91%
    13:00 0°C° 0.1 mm 4 mps 739 mmHg 93%
    14:00 0°C° 0.1 mm 4 mps 739 mmHg 95%
    15:00 +1°C° 0 mm 4 mps 738 mmHg 93%
    16:00 +1°C° 0 mm 4 mps 738 mmHg 92%
    17:00 +2°C° 0 mm 5 mps 737 mmHg 90%
    18:00 +3°C° 0 mm 4 mps 737 mmHg 91%
    19:00 +3°C° 0 mm 4 mps 737 mmHg 91%
    20:00 +3°C° 0 mm 4 mps 737 mmHg 92%
    21:00 +3°C° 0 mm 4 mps 736 mmHg 92%
    22:00 +3°C° 0 mm 4 mps 736 mmHg 93%
    23:00 +3°C° 0 mm 4 mps 735 mmHg 93%

    Tomorrow, 26 February, Wednesday

    Time Temperature Precipitation Wind Pressure Humidity
    00:00 +3°C° 0.2 mm 4 mps 735 mmHg 94%
    01:00 +3°C° 0.2 mm 4 mps 735 mmHg 94%
    02:00 +4°C° 0.2 mm 4 mps 734 mmHg 94%
    03:00 +4°C° 0.5 mm 4 mps 734 mmHg 94%
    04:00 +4°C° 0.5 mm 4 mps 733 mmHg 94%
    05:00 +4°C° 0.5 mm 4 mps 732 mmHg 94%
    06:00 +4°C° 0.1 mm 4 mps 732 mmHg 94%
    07:00 +4°C° 0.1 mm 3 mps 732 mmHg 94%
    08:00 +5°C° 0.1 mm 3 mps 732 mmHg 94%
    09:00 +5°C° 0 mm 3 mps 732 mmHg 92%
    10:00 +7°C° 0 mm 3 mps 732 mmHg 89%
    11:00 +7°C° 0 mm 2 mps 732 mmHg 86%
    12:00 +8°C° 0 mm 2 mps 732 mmHg 81%
    13:00 +8°C° 0 mm 3 mps 732 mmHg 76%
    14:00 +9°C° 0 mm 3 mps 732 mmHg 71%
    15:00 +9°C° 0.2 mm 2 mps 731 mmHg 74%
    16:00 +8°C° 0.2 mm 2 mps 731 mmHg 77%
    17:00 +8°C° 0.2 mm 2 mps 731 mmHg 79%
    18:00 +7°C° 1.1 mm 2 mps 731 mmHg 83%
    19:00 +7°C° 1.1 mm 2 mps 730 mmHg 87%
    20:00 +6°C° 1.1 mm 2 mps 730 mmHg 91%
    21:00 +6°C° 0.7 mm 2 mps 730 mmHg 90%
    22:00 +6°C° 0.7 mm 2 mps 730 mmHg 90%
    23:00 +5°C° 0.7 mm 2 mps 730 mmHg 89%

    Day after tomorrow, 27 February, Thursday

    Time Temperature Precipitation Wind Pressure Humidity
    00:00 +4°C° 0.1 mm 3 mps 730 mmHg 87%
    01:00 +4°C° 0.1 mm 3 mps 730 mmHg 86%
    02:00 +4°C° 0.1 mm 3 mps 731 mmHg 84%
    03:00 +3°C° 0 mm 3 mps 731 mmHg 84%
    04:00 +1°C° 0 mm 4 mps 731 mmHg 84%
    05:00 +1°C° 0 mm 4 mps 731 mmHg 84%
    06:00 0°C° 0 mm 4 mps 731 mmHg 84%
    07:00 0°C° 0 mm 4 mps 732 mmHg 84%
    08:00 0°C° 0 mm 4 mps 733 mmHg 85%
    09:00 0°C° 0 mm 4 mps 733 mmHg 80%
    10:00 +1°C° 0 mm 5 mps 733 mmHg 76%
    11:00 +1°C° 0 mm 5 mps 734 mmHg 71%
    12:00 +1°C° 0 mm 6 mps 734 mmHg 68%
    13:00 +2°C° 0 mm 6 mps 734 mmHg 65%
    14:00 +2°C° 0 mm 6 mps 735 mmHg 62%
    15:00 +2°C° 0 mm 5 mps 735 mmHg 63%
    16:00 +1°C° 0 mm 5 mps 735 mmHg 65%
    17:00 +1°C° 0 mm 4 mps 735 mmHg 66%
    18:00 0°C° 0 mm 4 mps 735 mmHg 70%
    19:00 0°C° 0 mm 4 mps 736 mmHg 74%
    20:00 -1°C° 0 mm 4 mps 736 mmHg 78%
    21:00 -2°C° 0 mm 4 mps 736 mmHg 77%
    22:00 -1°C° 0 mm 3 mps 736 mmHg 77%
    23:00 -2°C° 0 mm 3 mps 736 mmHg 77%

    28 February, Friday

    Time Temperature Precipitation Wind Pressure Humidity
    00:00 -2°C° 0 mm 3 mps 736 mmHg 77%
    01:00 -2°C° 0 mm 3 mps 736 mmHg 78%
    02:00 -2°C° 0 mm 3 mps 736 mmHg 78%
    03:00 -2°C° 0 mm 3 mps 736 mmHg 80%
    04:00 -2°C° 0 mm 3 mps 736 mmHg 81%
    05:00 -2°C° 0 mm 2 mps 736 mmHg 83%
    06:00 -2°C° 0 mm 3 mps 736 mmHg 82%
    07:00 -1°C° 0 mm 3 mps 736 mmHg 81%
    08:00 -1°C° 0 mm 3 mps 737 mmHg 80%
    09:00 0°C° 0 mm 3 mps 736 mmHg 74%
    10:00 +1°C° 0 mm 3 mps 736 mmHg 68%
    11:00 +2°C° 0 mm 3 mps 736 mmHg 62%
    12:00 +3°C° 0 mm 3 mps 737 mmHg 60%
    13:00 +3°C° 0 mm 3 mps 737 mmHg 57%
    14:00 +4°C° 0 mm 3 mps 737 mmHg 55%
    15:00 +3°C° 0.3 mm 3 mps 737 mmHg 68%
    16:00 +1°C° 0.3 mm 3 mps 737 mmHg 80%
    17:00 0°C° 0.3 mm 3 mps 737 mmHg 93%
    18:00 0°C° 0.7 mm 3 mps 737 mmHg 95%
    19:00 +1°C° 0.7 mm 2 mps 738 mmHg 96%
    20:00 -1°C° 0.7 mm 2 mps 738 mmHg 98%
    21:00 -1°C° 0.7 mm 3 mps 739 mmHg 98%
    22:00 0°C° 0.7 mm 3 mps 739 mmHg 97%
    23:00 -1°C° 0.7 mm 4 mps 739 mmHg 97%

    29 February, Saturday

    Time Temperature Precipitation Wind Pressure Humidity
    00:00 -2°C° 0.1 mm 4 mps 740 mmHg 96%
    01:00 -2°C° 0.1 mm 4 mps 740 mmHg 95%
    02:00 -2°C° 0.1 mm 4 mps 741 mmHg 94%
    03:00 -2°C° 0 mm 4 mps 741 mmHg 91%
    04:00 -2°C° 0 mm 4 mps 741 mmHg 88%
    05:00 -2°C° 0 mm 3 mps 741 mmHg 86%
    06:00 -2°C° 0 mm 3 mps 742 mmHg 85%
    07:00 -2°C° 0 mm 3 mps 742 mmHg 85%
    08:00 -2°C° 0 mm 3 mps 742 mmHg 85%
    09:00 -1°C° 0 mm 3 mps 743 mmHg 82%
    10:00 0°C° 0 mm 3 mps 743 mmHg 79%
    11:00 +1°C° 0 mm 3 mps 743 mmHg 76%
    12:00 +1°C° 0.1 mm 3 mps 744 mmHg 79%
    13:00 +1°C° 0.1 mm 3 mps 744 mmHg 81%
    14:00 +1°C° 0.1 mm 3 mps 744 mmHg 84%
    15:00 +1°C° 0.1 mm 3 mps 744 mmHg 83%
    16:00 +2°C° 0.1 mm 2 mps 745 mmHg 83%
    17:00 +1°C° 0.1 mm 2 mps 745 mmHg 83%
    18:00 -1°C° 0 mm 2 mps 746 mmHg 83%
    19:00 -1°C° 0 mm 2 mps 746 mmHg 82%
    20:00 -2°C° 0 mm 2 mps 747 mmHg 82%
    21:00 -3°C° 0 mm 2 mps 747 mmHg 80%
    22:00 -1°C° 0 mm 1 mps 747 mmHg 79%
    23:00 -1°C° 0 mm 1 mps 747 mmHg 77%

    1 March, Sunday

    Time Temperature Precipitation Wind Pressure Humidity
    00:00 -1°C° 0 mm 1 mps 747 mmHg 76%
    01:00 -1°C° 0 mm 1 mps 747 mmHg 75%
    02:00 -1°C° 0 mm 1 mps 747 mmHg 74%
    03:00 -1°C° 0 mm 1 mps 747 mmHg 75%
    04:00 -3°C° 0 mm 2 mps 747 mmHg 75%
    05:00 -3°C° 0 mm 2 mps 747 mmHg 76%
    06:00 -4°C° 0 mm 3 mps 747 mmHg 77%
    07:00 -4°C° 0 mm 4 mps 746 mmHg 77%
    08:00 -3°C° 0 mm 4 mps 746 mmHg 77%
    09:00 -2°C° 0 mm 5 mps 746 mmHg 72%
    10:00 -2°C° 0 mm 6 mps 746 mmHg 68%
    11:00 -1°C° 0 mm 6 mps 746 mmHg 63%
    12:00 +1°C° 0 mm 6 mps 745 mmHg 64%
    13:00 +1°C° 0 mm 6 mps 745 mmHg 66%
    14:00 +2°C° 0 mm 6 mps 744 mmHg 67%
    15:00 +2°C° 0 mm 5 mps 744 mmHg 72%
    16:00 +1°C° 0 mm 5 mps 744 mmHg 76%
    17:00 +1°C° 0 mm 4 mps 744 mmHg 80%
    18:00 +1°C° 0.2 mm 4 mps 744 mmHg 86%
    19:00 0°C° 0.2 mm 4 mps 744 mmHg 91%
    20:00 0°C° 0.2 mm 4 mps 744 mmHg 97%
    21:00 +1°C° 0.3 mm 3 mps 744 mmHg 97%
    22:00 +1°C° 0.3 mm 3 mps 744 mmHg 98%
    23:00 +2°C° 0.3 mm 2 mps 744 mmHg 98%
    Show more